Time,TemperatureF,DewpointF,PressureIn,WindDirection,WindDirectionDegrees,WindSpeedMPH,WindSpeedGustMPH,Humidity,HourlyPrecipIn,Conditions,Clouds,dailyrainin,SolarRadiationWatts/m^2,SoftwareType,DateUTC
2013-05-16 00:01:00,76.2,60.8,29.72,WSW,250,0.0,0.0,59,0.00,,,0.00,0.00,VWS V14.01,2013-05-16 04:01:00,
2013-05-16 00:04:00,76.2,61.3,29.72,WSW,250,0.0,0.0,60,0.00,,,0.00,0.00,VWS V14.01,2013-05-16 04:04:00,
2013-05-16 00:05:00,76.2,61.3,29.72,WSW,249,0.0,0.0,60,0.00,,,0.00,0.00,VWS V14.01,2013-05-16 04:05:00,
2013-05-16 00:10:00,76.2,61.3,29.72,WSW,250,0.0,0.0,60,0.00,,,0.00,0.00,VWS V14.01,2013-05-16 04:10:00,
2013-05-16 00:15:00,76.0,61.6,29.72,WSW,242,0.0,2.0,61,0.00,,,0.00,0.00,VWS V14.01,2013-05-16 04:15:00,
2013-05-16 00:20:00,75.9,61.5,29.72,WSW,243,0.0,1.0,61,0.00,,,0.00,0.00,VWS V14.01,2013-05-16 04:20:00,
2013-05-16 00:25:00,75.7,61.3,29.72,WSW,242,0.0,1.0,61,0.00,,,0.00,0.00,VWS V14.01,2013-05-16 04:25:00,
2013-05-16 00:30:00,75.4,61.0,29.72,WSW,237,0.0,1.0,61,0.00,,,0.00,0.00,VWS V14.01,2013-05-16 04:30:00,
2013-05-16 00:35:00,75.3,61.4,29.72,WSW,237,0.0,1.0,62,0.00,,,0.00,0.00,VWS V14.01,2013-05-16 04:35:00,
2013-05-16 00:40:00,75.1,60.8,29.72,WSW,237,1.0,1.0,61,0.00,,,0.00,0.00,VWS V14.01,2013-05-16 04:40:00,
2013-05-16 00:45:00,75.0,60.7,29.72,SW,236,0.0,0.0,61,0.00,,,0.00,0.00,VWS V14.01,2013-05-16 04:45:00,
2013-05-16 00:50:00,74.9,60.6,29.72,SW,225,0.0,0.0,61,0.00,,,0.00,0.00,VWS V14.01,2013-05-16 04:50:00,
2013-05-16 00:55:00,74.9,60.1,29.73,WNW,291,0.0,1.0,60,0.00,,,0.00,0.00,VWS V14.01,2013-05-16 04:55:00,
2013-05-16 01:01:00,75.0,60.2,29.72,SSW,210,0.0,0.0,60,0.00,,,0.00,0.00,VWS V14.01,2013-05-16 05:01:00,
2013-05-16 01:06:00,75.1,59.8,29.72,SW,219,0.0,3.0,59,0.00,,,0.00,0.00,VWS V14.01,2013-05-16 05:06:00,
2013-05-16 01:11:00,75.2,59.4,29.72,SW,219,0.0,0.0,58,0.00,,,0.00,0.00,VWS V14.01,2013-05-16 05:11:00,
2013-05-16 01:16:00,75.3,59.0,29.72,SW,217,0.0,0.0,57,0.00,,,0.00,0.00,VWS V14.01,2013-05-16 05:16:00,
2013-05-16 01:21:00,75.5,58.7,29.72,WNW,286,0.0,0.0,56,0.00,,,0.00,0.00,VWS V14.01,2013-05-16 05:21:00,
2013-05-16 01:26:00,75.6,58.3,29.72,SW,215,0.0,4.0,55,0.00,,,0.00,0.00,VWS V14.01,2013-05-16 05:26:00,
2013-05-16 01:31:00,75.6,58.3,29.72,SSW,194,1.0,3.0,55,0.00,,,0.00,0.00,VWS V14.01,2013-05-16 05:31:00,
2013-05-16 01:36:00,75.7,57.9,29.72,WSW,241,0.0,3.0,54,0.00,,,0.00,0.00,VWS V14.01,2013-05-16 05:36:00,
2013-05-16 01:42:00,75.7,57.9,29.72,SSW,210,0.0,5.0,54,0.00,,,0.00,0.00,VWS V14.01,2013-05-16 05:42:00,
2013-05-16 01:47:00,75.7,57.9,29.72,SSW,211,0.0,1.0,54,0.00,,,0.00,0.00,VWS V14.01,2013-05-16 05:47:00,
2013-05-16 01:52:00,75.8,58.0,29.72,SW,219,5.0,5.0,54,0.00,,,0.00,0.00,VWS V14.01,2013-05-16 05:52:00,
2013-05-16 01:57:00,75.8,57.5,29.72,SSW,208,0.0,3.0,53,0.00,,,0.00,0.00,VWS V14.01,2013-05-16 05:57:00,
2013-05-16 02:02:00,75.8,57.5,29.72,SW,214,0.0,1.0,53,0.00,,,0.00,0.00,VWS V14.01,2013-05-16 06:02:00,
2013-05-16 02:07:00,75.8,57.5,29.72,SW,215,1.0,2.0,53,0.00,,,0.00,0.00,VWS V14.01,2013-05-16 06:07:00,
2013-05-16 02:12:00,75.7,57.4,29.72,SSW,209,0.0,3.0,53,0.00,,,0.00,0.00,VWS V14.01,2013-05-16 06:12:00,
2013-05-16 02:17:00,75.7,56.8,29.71,SSW,210,0.0,2.0,52,0.00,,,0.00,0.00,VWS V14.01,2013-05-16 06:17:00,
2013-05-16 02:22:00,75.7,57.4,29.71,SW,233,0.0,2.0,53,0.00,,,0.00,0.00,VWS V14.01,2013-05-16 06:22:00,
2013-05-16 02:27:00,75.6,56.8,29.71,SW,215,0.0,1.0,52,0.00,,,0.00,0.00,VWS V14.01,2013-05-16 06:27:00,
2013-05-16 02:32:00,75.6,56.8,29.71,SW,220,0.0,0.0,52,0.00,,,0.00,0.00,VWS V14.01,2013-05-16 06:32:00,
2013-05-16 02:38:00,75.5,56.7,29.71,SSW,205,2.0,4.0,52,0.00,,,0.00,0.00,VWS V14.01,2013-05-16 06:38:00,
2013-05-16 02:43:00,75.5,56.7,29.71,SSW,208,0.0,0.0,52,0.00,,,0.00,0.00,VWS V14.01,2013-05-16 06:43:00,
2013-05-16 02:48:00,75.4,56.6,29.71,SW,214,0.0,1.0,52,0.00,,,0.00,0.00,VWS V14.01,2013-05-16 06:48:00,
2013-05-16 02:53:00,75.3,56.5,29.72,SSW,200,0.0,1.0,52,0.00,,,0.00,0.00,VWS V14.01,2013-05-16 06:53:00,
2013-05-16 02:58:00,75.3,56.5,29.72,WSW,243,0.0,3.0,52,0.00,,,0.00,0.00,VWS V14.01,2013-05-16 06:58:00,
2013-05-16 03:03:00,75.3,56.5,29.71,SSW,192,0.0,3.0,52,0.00,,,0.00,0.00,VWS V14.01,2013-05-16 07:03:00,
2013-05-16 03:08:00,75.3,56.5,29.71,SSW,211,0.0,5.0,52,0.00,,,0.00,0.00,VWS V14.01,2013-05-16 07:08:00,
2013-05-16 03:13:00,75.4,56.6,29.71,SSW,213,1.0,5.0,52,0.00,,,0.00,0.00,VWS V14.01,2013-05-16 07:13:00,
2013-05-16 03:18:00,75.7,56.3,29.72,WSW,241,0.0,5.0,51,0.00,,,0.00,0.00,VWS V14.01,2013-05-16 07:18:00,
2013-05-16 03:26:00,76.0,56.6,29.71,SW,219,1.0,1.0,51,0.00,,,0.00,0.00,VWS V14.01,2013-05-16 07:26:00,
2013-05-16 03:31:00,76.1,56.7,29.71,SSW,204,0.0,0.0,51,0.00,,,0.00,0.00,VWS V14.01,2013-05-16 07:31:00,
2013-05-16 03:36:00,76.1,56.7,29.71,WSW,257,0.0,0.0,51,0.00,,,0.00,0.00,VWS V14.01,2013-05-16 07:36:00,
2013-05-16 03:41:00,76.0,56.6,29.71,WSW,255,1.0,1.0,51,0.00,,,0.00,0.00,VWS V14.01,2013-05-16 07:41:00,
2013-05-16 03:46:00,75.9,57.0,29.71,WNW,290,0.0,0.0,52,0.00,,,0.00,0.00,VWS V14.01,2013-05-16 07:46:00,
2013-05-16 03:51:00,75.7,56.8,29.71,WNW,290,0.0,1.0,52,0.00,,,0.00,0.00,VWS V14.01,2013-05-16 07:51:00,
2013-05-16 03:56:00,75.3,56.5,29.72,West,271,0.0,1.0,52,0.00,,,0.00,0.00,VWS V14.01,2013-05-16 07:56:00,
2013-05-16 04:01:00,75.0,56.7,29.72,West,275,0.0,2.0,53,0.00,,,0.00,0.00,VWS V14.01,2013-05-16 08:01:00,
2013-05-16 04:06:00,74.7,56.5,29.71,West,280,0.0,5.0,53,0.00,,,0.00,0.00,VWS V14.01,2013-05-16 08:06:00,
2013-05-16 04:11:00,74.8,56.5,29.71,NW,315,0.0,1.0,53,0.00,,,0.00,0.00,VWS V14.01,2013-05-16 08:11:00,
2013-05-16 04:16:00,75.0,56.7,29.71,NW,322,0.0,5.0,53,0.00,,,0.00,0.00,VWS V14.01,2013-05-16 08:16:00,
2013-05-16 04:22:00,75.2,56.9,29.71,NW,313,0.0,6.0,53,0.00,,,0.00,0.00,VWS V14.01,2013-05-16 08:22:00,
2013-05-16 04:27:00,75.4,57.1,29.72,NW,319,0.0,5.0,53,0.00,,,0.00,0.00,VWS V14.01,2013-05-16 08:27:00,
2013-05-16 04:32:00,75.4,57.1,29.72,NW,318,0.0,4.0,53,0.00,,,0.00,0.00,VWS V14.01,2013-05-16 08:32:00,
2013-05-16 04:37:00,75.3,57.0,29.72,WSW,257,0.0,3.0,53,0.00,,,0.00,0.00,VWS V14.01,2013-05-16 08:37:00,
2013-05-16 04:42:00,75.1,57.3,29.72,WNW,294,0.0,0.0,54,0.00,,,0.00,0.00,VWS V14.01,2013-05-16 08:42:00,
2013-05-16 04:47:00,74.9,57.2,29.72,NW,318,0.0,2.0,54,0.00,,,0.00,0.00,VWS V14.01,2013-05-16 08:47:00,
2013-05-16 04:52:00,74.8,57.1,29.73,NW,317,0.0,1.0,54,0.00,,,0.00,0.00,VWS V14.01,2013-05-16 08:52:00,
2013-05-16 04:57:00,74.5,57.8,29.73,SE,141,4.0,5.0,56,0.00,,,0.00,0.00,VWS V14.01,2013-05-16 08:57:00,
2013-05-16 05:02:00,74.0,58.3,29.73,SSW,193,3.0,3.0,58,0.00,,,0.00,0.00,VWS V14.01,2013-05-16 09:02:00,
2013-05-16 05:08:00,73.3,57.7,29.73,SSW,199,0.0,3.0,58,0.00,,,0.00,0.00,VWS V14.01,2013-05-16 09:08:00,
2013-05-16 05:13:00,72.5,57.8,29.73,SSW,198,0.0,0.0,60,0.00,,,0.00,0.00,VWS V14.01,2013-05-16 09:13:00,
2013-05-16 05:18:00,71.8,57.6,29.73,SSW,198,1.0,2.0,61,0.00,,,0.00,0.00,VWS V14.01,2013-05-16 09:18:00,
2013-05-16 05:23:00,71.3,57.6,29.73,SSW,192,0.0,0.0,62,0.00,,,0.00,0.00,VWS V14.01,2013-05-16 09:23:00,
2013-05-16 05:28:00,70.9,57.7,29.74,SSW,193,0.0,0.0,63,0.00,,,0.00,0.00,VWS V14.01,2013-05-16 09:28:00,
2013-05-16 05:33:00,70.6,57.0,29.74,SSW,193,0.0,1.0,62,0.00,,,0.00,0.00,VWS V14.01,2013-05-16 09:33:00,
2013-05-16 05:38:00,70.4,57.2,29.74,WSW,246,0.0,1.0,63,0.00,,,0.00,0.00,VWS V14.01,2013-05-16 09:38:00,
2013-05-16 05:43:00,70.6,57.4,29.74,NW,307,0.0,4.0,63,0.00,,,0.00,0.00,VWS V14.01,2013-05-16 09:43:00,
2013-05-16 05:48:00,70.8,57.2,29.74,NNW,345,1.0,4.0,62,0.00,,,0.00,0.00,VWS V14.01,2013-05-16 09:48:00,
2013-05-16 05:53:00,71.2,57.5,29.75,NW,320,0.0,3.0,62,0.00,,,0.00,0.00,VWS V14.01,2013-05-16 09:53:00,
2013-05-16 05:58:00,71.6,57.9,29.75,NNW,343,0.0,4.0,62,0.00,,,0.00,0.00,VWS V14.01,2013-05-16 09:58:00,
2013-05-16 06:03:00,71.9,57.7,29.75,WSW,243,0.0,4.0,61,0.00,,,0.00,0.00,VWS V14.01,2013-05-16 10:03:00,
2013-05-16 06:09:00,72.2,58.0,29.75,NW,309,0.0,3.0,61,0.00,,,0.00,0.00,VWS V14.01,2013-05-16 10:09:00,
2013-05-16 06:14:00,72.6,57.9,29.76,SSW,205,0.0,5.0,60,0.00,,,0.00,0.00,VWS V14.01,2013-05-16 10:14:00,
2013-05-16 06:19:00,72.8,58.1,29.76,NNW,342,3.0,10.0,60,0.00,,,0.00,5.00,VWS V14.01,2013-05-16 10:19:00,
2013-05-16 06:24:00,73.1,58.4,29.77,WNW,303,6.0,10.0,60,0.00,,,0.00,11.00,VWS V14.01,2013-05-16 10:24:00,
2013-05-16 06:29:00,73.4,58.7,29.77,NW,319,5.0,11.0,60,0.00,,,0.00,19.00,VWS V14.01,2013-05-16 10:29:00,
2013-05-16 06:34:00,73.9,58.7,29.77,NW,306,6.0,11.0,59,0.00,,,0.00,30.00,VWS V14.01,2013-05-16 10:34:00,
2013-05-16 06:39:00,74.2,59.0,29.78,NW,309,3.0,10.0,59,0.00,,,0.00,37.00,VWS V14.01,2013-05-16 10:39:00,
2013-05-16 06:44:00,74.3,59.1,29.78,NW,322,4.0,14.0,59,0.00,,,0.00,42.00,VWS V14.01,2013-05-16 10:44:00,
2013-05-16 06:49:00,74.2,59.4,29.78,NW,323,7.0,12.0,60,0.00,,,0.00,44.00,VWS V14.01,2013-05-16 10:49:00,
2013-05-16 06:54:00,74.0,59.7,29.79,NW,317,1.0,8.0,61,0.00,,,0.00,40.00,VWS V14.01,2013-05-16 10:54:00,
2013-05-16 06:59:00,73.7,59.9,29.79,NW,321,0.0,4.0,62,0.00,,,0.00,30.00,VWS V14.01,2013-05-16 10:59:00,
2013-05-16 07:05:00,73.5,59.7,29.79,NW,321,0.0,1.0,62,0.00,,,0.00,26.00,VWS V14.01,2013-05-16 11:05:00,
2013-05-16 07:10:00,73.4,60.0,29.79,NW,321,0.0,1.0,63,0.00,,,0.00,21.00,VWS V14.01,2013-05-16 11:10:00,
2013-05-16 07:15:00,73.2,60.7,29.79,NW,321,0.0,0.0,65,0.00,,,0.00,16.00,VWS V14.01,2013-05-16 11:15:00,
2013-05-16 07:20:00,73.0,61.4,29.79,NW,321,0.0,0.0,67,0.00,,,0.00,18.00,VWS V14.01,2013-05-16 11:20:00,
2013-05-16 07:25:00,72.8,61.2,29.79,NW,321,0.0,0.0,67,0.00,,,0.00,23.00,VWS V14.01,2013-05-16 11:25:00,
2013-05-16 07:30:00,72.6,61.4,29.79,NW,321,0.0,0.0,68,0.00,,,0.00,33.00,VWS V14.01,2013-05-16 11:30:00,
2013-05-16 07:35:00,72.2,61.5,29.79,NW,321,0.0,0.0,69,0.00,,,0.00,42.00,VWS V14.01,2013-05-16 11:35:00,
2013-05-16 07:40:00,71.7,60.6,29.79,NW,321,0.0,0.0,68,0.00,,,0.00,63.00,VWS V14.01,2013-05-16 11:40:00,
2013-05-16 07:45:00,71.4,61.1,29.79,NW,321,0.0,0.0,70,0.00,,,0.00,62.00,VWS V14.01,2013-05-16 11:45:00,
2013-05-16 07:50:00,71.2,61.3,29.78,NW,321,0.0,0.0,71,0.00,,,0.00,65.00,VWS V14.01,2013-05-16 11:50:00,
2013-05-16 07:55:00,71.0,61.1,29.78,NW,321,0.0,0.0,71,0.00,,,0.00,63.00,VWS V14.01,2013-05-16 11:55:00,
2013-05-16 08:01:00,70.8,61.7,29.79,NW,321,0.0,0.0,73,0.00,,,0.00,51.00,VWS V14.01,2013-05-16 12:01:00,
2013-05-16 08:06:00,70.7,61.6,29.79,NW,321,0.0,0.0,73,0.00,,,0.00,62.00,VWS V14.01,2013-05-16 12:06:00,
2013-05-16 08:11:00,70.6,62.3,29.79,NW,321,0.0,0.0,75,0.00,,,0.00,54.00,VWS V14.01,2013-05-16 12:11:00,
2013-05-16 08:16:00,70.3,62.0,29.79,NW,321,0.0,0.0,75,0.00,,,0.00,51.00,VWS V14.01,2013-05-16 12:16:00,
2013-05-16 08:21:00,70.1,62.6,29.79,NW,321,0.0,0.0,77,0.00,,,0.00,58.00,VWS V14.01,2013-05-16 12:21:00,
2013-05-16 08:26:00,69.8,62.3,29.80,NW,321,0.0,0.0,77,0.00,,,0.00,79.00,VWS V14.01,2013-05-16 12:26:00,
2013-05-16 08:31:00,69.6,62.4,29.81,NW,321,0.0,0.0,78,0.00,,,0.00,98.00,VWS V14.01,2013-05-16 12:31:00,
2013-05-16 08:36:00,69.4,61.9,29.81,NW,318,1.0,5.0,77,0.00,,,0.00,86.00,VWS V14.01,2013-05-16 12:36:00,
2013-05-16 08:41:00,69.2,61.3,29.81,NW,318,0.0,0.0,76,0.00,,,0.00,104.00,VWS V14.01,2013-05-16 12:41:00,
2013-05-16 08:46:00,69.2,61.0,29.82,WNW,296,0.0,2.0,75,0.00,,,0.00,74.00,VWS V14.01,2013-05-16 12:46:00,
2013-05-16 08:51:00,69.3,61.0,29.82,WNW,295,0.0,0.0,75,0.00,,,0.00,100.00,VWS V14.01,2013-05-16 12:51:00,
2013-05-16 08:56:00,69.4,61.1,29.81,WNW,296,0.0,0.0,75,0.00,,,0.00,153.00,VWS V14.01,2013-05-16 12:56:00,
2013-05-16 09:02:00,69.7,61.0,29.81,NW,317,5.0,8.0,74,0.00,,,0.00,193.00,VWS V14.01,2013-05-16 13:02:00,
2013-05-16 09:07:00,70.2,61.5,29.81,WNW,302,0.0,1.0,74,0.00,,,0.00,243.00,VWS V14.01,2013-05-16 13:07:00,
2013-05-16 09:12:00,71.0,61.5,29.81,NNW,327,0.0,3.0,72,0.00,,,0.00,279.00,VWS V14.01,2013-05-16 13:12:00,
2013-05-16 09:17:00,71.7,61.8,29.80,NNW,333,4.0,5.0,71,0.00,,,0.00,327.00,VWS V14.01,2013-05-16 13:17:00,
2013-05-16 09:22:00,72.1,61.8,29.81,NNW,334,0.0,3.0,70,0.00,,,0.00,251.00,VWS V14.01,2013-05-16 13:22:00,
2013-05-16 09:27:00,72.4,62.1,29.80,North,355,0.0,1.0,70,0.00,,,0.00,200.00,VWS V14.01,2013-05-16 13:27:00,
2013-05-16 09:32:00,72.5,62.6,29.80,North,360,0.0,1.0,71,0.00,,,0.00,183.00,VWS V14.01,2013-05-16 13:32:00,
2013-05-16 09:37:00,72.3,62.8,29.79,NNE,21,0.0,1.0,72,0.00,,,0.00,156.00,VWS V14.01,2013-05-16 13:37:00,
2013-05-16 09:42:00,72.0,62.5,29.79,NE,38,0.0,1.0,72,0.00,,,0.00,134.00,VWS V14.01,2013-05-16 13:42:00,
2013-05-16 09:47:00,71.7,62.6,29.79,SE,144,0.0,1.0,73,0.00,,,0.00,102.00,VWS V14.01,2013-05-16 13:47:00,
2013-05-16 09:52:00,71.4,62.3,29.80,South,189,0.0,1.0,73,0.00,,,0.00,98.00,VWS V14.01,2013-05-16 13:52:00,
2013-05-16 09:59:00,71.3,62.6,29.80,SSW,196,1.0,1.0,74,0.00,,,0.00,67.00,VWS V14.01,2013-05-16 13:59:00,
2013-05-16 10:04:00,70.9,62.6,29.79,North,355,0.0,2.0,75,0.00,,,0.00,77.00,VWS V14.01,2013-05-16 14:04:00,
2013-05-16 10:09:00,70.6,62.3,29.79,NNW,330,0.0,1.0,75,0.00,,,0.00,83.00,VWS V14.01,2013-05-16 14:09:00,
2013-05-16 10:14:00,70.4,62.1,29.79,NW,314,1.0,5.0,75,0.00,,,0.00,67.00,VWS V14.01,2013-05-16 14:14:00,
2013-05-16 10:19:00,70.3,62.0,29.79,NW,314,0.0,0.0,75,0.00,,,0.00,65.00,VWS V14.01,2013-05-16 14:19:00,
2013-05-16 10:24:00,70.2,62.7,29.80,NW,314,0.0,0.0,77,0.00,,,0.00,70.00,VWS V14.01,2013-05-16 14:24:00,
2013-05-16 10:29:00,69.9,62.4,29.80,WSW,257,0.0,2.0,77,0.00,,,0.00,84.00,VWS V14.01,2013-05-16 14:29:00,
2013-05-16 10:34:00,69.6,62.1,29.80,NW,311,2.0,5.0,77,0.00,,,0.00,97.00,VWS V14.01,2013-05-16 14:34:00,
2013-05-16 10:39:00,69.4,62.2,29.80,West,265,0.0,5.0,78,0.00,,,0.00,107.00,VWS V14.01,2013-05-16 14:39:00,
2013-05-16 10:44:00,69.3,62.2,29.81,West,281,0.0,3.0,78,0.00,,,0.00,114.00,VWS V14.01,2013-05-16 14:44:00,
2013-05-16 10:49:00,69.2,62.4,29.81,WNW,292,2.0,5.0,79,0.00,,,0.00,104.00,VWS V14.01,2013-05-16 14:49:00,
2013-05-16 10:55:00,69.0,61.9,29.81,West,275,0.0,6.0,78,0.00,,,0.00,72.00,VWS V14.01,2013-05-16 14:55:00,
2013-05-16 11:00:00,68.8,61.7,29.82,NNW,346,4.0,4.0,78,0.00,,,0.00,62.00,VWS V14.01,2013-05-16 15:00:00,
2013-05-16 11:05:00,68.8,61.7,29.82,SW,221,0.0,2.0,78,0.00,,,0.00,74.00,VWS V14.01,2013-05-16 15:05:00,
2013-05-16 11:10:00,68.7,61.9,29.82,SSE,150,0.0,4.0,79,0.00,,,0.00,98.00,VWS V14.01,2013-05-16 15:10:00,
2013-05-16 11:15:00,68.6,62.2,29.82,SSW,197,0.0,3.0,80,0.00,,,0.00,130.00,VWS V14.01,2013-05-16 15:15:00,
2013-05-16 11:20:00,68.5,62.1,29.83,WNW,286,2.0,4.0,80,0.00,,,0.00,130.00,VWS V14.01,2013-05-16 15:20:00,
2013-05-16 11:25:00,68.4,62.0,29.83,WSW,244,1.0,6.0,80,0.00,,,0.00,153.00,VWS V14.01,2013-05-16 15:25:00,
2013-05-16 11:30:00,68.4,62.0,29.84,SW,220,0.0,5.0,80,0.00,,,0.00,183.00,VWS V14.01,2013-05-16 15:30:00,
2013-05-16 11:35:00,68.3,61.9,29.84,WSW,240,0.0,11.0,80,0.00,,,0.00,174.00,VWS V14.01,2013-05-16 15:35:00,
2013-05-16 11:40:00,68.3,62.2,29.84,SW,236,0.0,0.0,81,0.00,,,0.00,202.00,VWS V14.01,2013-05-16 15:40:00,
2013-05-16 11:45:00,68.3,62.2,29.83,WSW,257,0.0,6.0,81,0.00,,,0.00,234.00,VWS V14.01,2013-05-16 15:45:00,
2013-05-16 11:51:00,68.4,62.3,29.83,SW,217,0.0,3.0,81,0.00,,,0.00,183.00,VWS V14.01,2013-05-16 15:51:00,
2013-05-16 11:56:00,68.3,62.2,29.83,WSW,242,0.0,0.0,81,0.00,,,0.00,183.00,VWS V14.01,2013-05-16 15:56:00,
2013-05-16 12:01:00,68.3,62.2,29.83,West,263,0.0,3.0,81,0.00,,,0.00,155.00,VWS V14.01,2013-05-16 16:01:00,
2013-05-16 12:06:00,68.3,62.2,29.83,SSW,198,0.0,0.0,81,0.00,,,0.00,163.00,VWS V14.01,2013-05-16 16:06:00,
2013-05-16 12:11:00,68.4,62.3,29.83,WSW,237,0.0,2.0,81,0.00,,,0.00,193.00,VWS V14.01,2013-05-16 16:11:00,
2013-05-16 12:16:00,68.5,62.5,29.83,South,188,0.0,2.0,81,0.00,,,0.00,253.00,VWS V14.01,2013-05-16 16:16:00,
2013-05-16 12:21:00,68.9,62.8,29.83,South,191,1.0,1.0,81,0.00,,,0.00,323.00,VWS V14.01,2013-05-16 16:21:00,
2013-05-16 12:26:00,69.4,63.0,29.82,South,184,0.0,1.0,80,0.00,,,0.00,338.00,VWS V14.01,2013-05-16 16:26:00,
2013-05-16 12:31:00,69.8,63.0,29.82,South,184,0.0,0.0,79,0.00,,,0.00,454.00,VWS V14.01,2013-05-16 16:31:00,
2013-05-16 12:36:00,70.5,64.0,29.82,SSE,160,0.0,3.0,80,0.00,,,0.00,531.00,VWS V14.01,2013-05-16 16:36:00,
2013-05-16 12:42:00,71.2,63.6,29.81,SSE,157,0.0,0.0,77,0.00,,,0.00,589.00,VWS V14.01,2013-05-16 16:42:00,
2013-05-16 12:47:00,71.6,63.6,29.81,South,172,0.0,0.0,76,0.00,,,0.00,573.00,VWS V14.01,2013-05-16 16:47:00,
2013-05-16 12:52:00,72.0,62.9,29.81,NW,325,0.0,0.0,73,0.00,,,0.00,573.00,VWS V14.01,2013-05-16 16:52:00,
2013-05-16 12:57:00,72.5,64.1,29.80,WNW,295,0.0,1.0,75,0.00,,,0.00,698.00,VWS V14.01,2013-05-16 16:57:00,
2013-05-16 13:02:00,73.0,63.8,29.81,West,279,1.0,1.0,73,0.00,,,0.00,823.00,VWS V14.01,2013-05-16 17:02:00,
2013-05-16 13:07:00,73.3,64.5,29.81,SSW,204,0.0,0.0,74,0.00,,,0.00,670.00,VWS V14.01,2013-05-16 17:07:00,
2013-05-16 13:12:00,73.7,64.1,29.80,NW,304,0.0,1.0,72,0.00,,,0.00,714.00,VWS V14.01,2013-05-16 17:12:00,
2013-05-16 13:17:00,74.1,64.9,29.80,SW,232,1.0,2.0,73,0.00,,,0.00,536.00,VWS V14.01,2013-05-16 17:17:00,
2013-05-16 13:22:00,73.9,63.5,29.80,SW,232,0.0,0.0,70,0.00,,,0.00,568.00,VWS V14.01,2013-05-16 17:22:00,
2013-05-16 13:28:00,74.5,64.9,29.80,SSE,151,0.0,1.0,72,0.00,,,0.00,700.00,VWS V14.01,2013-05-16 17:28:00,
2013-05-16 13:33:00,75.2,64.8,29.80,NNW,344,1.0,3.0,70,0.00,,,0.00,779.00,VWS V14.01,2013-05-16 17:33:00,
2013-05-16 13:38:00,75.5,65.0,29.80,NNW,343,6.0,10.0,70,0.00,,,0.00,840.00,VWS V14.01,2013-05-16 17:38:00,
2013-05-16 13:43:00,75.7,64.0,29.80,NW,307,5.0,9.0,67,0.00,,,0.00,914.00,VWS V14.01,2013-05-16 17:43:00,
2013-05-16 13:48:00,75.8,65.3,29.80,North,360,1.0,4.0,70,0.00,,,0.00,844.00,VWS V14.01,2013-05-16 17:48:00,
2013-05-16 13:53:00,76.0,64.7,29.80,NNW,342,0.0,7.0,68,0.00,,,0.00,515.00,VWS V14.01,2013-05-16 17:53:00,
2013-05-16 13:58:00,76.0,64.7,29.80,NW,321,0.0,3.0,68,0.00,,,0.00,898.00,VWS V14.01,2013-05-16 17:58:00,
2013-05-16 14:03:00,76.3,65.0,29.81,NNW,330,0.0,2.0,68,0.00,,,0.00,854.00,VWS V14.01,2013-05-16 18:03:00,
2013-05-16 14:08:00,76.9,65.1,29.81,West,267,0.0,7.0,67,0.00,,,0.00,786.00,VWS V14.01,2013-05-16 18:08:00,
2013-05-16 14:13:00,77.3,65.5,29.81,NW,317,7.0,7.0,67,0.00,,,0.00,682.00,VWS V14.01,2013-05-16 18:13:00,
2013-05-16 14:18:00,77.4,64.7,29.81,NW,324,7.0,12.0,65,0.00,,,0.00,947.00,VWS V14.01,2013-05-16 18:18:00,
2013-05-16 14:24:00,77.7,64.6,29.81,NNW,342,10.0,13.0,64,0.00,,,0.00,833.00,VWS V14.01,2013-05-16 18:24:00,
2013-05-16 14:29:00,77.8,64.2,29.81,NW,313,3.0,10.0,63,0.00,,,0.00,744.00,VWS V14.01,2013-05-16 18:29:00,
2013-05-16 14:34:00,77.5,64.4,29.81,WSW,243,0.0,10.0,64,0.00,,,0.00,429.00,VWS V14.01,2013-05-16 18:34:00,
2013-05-16 14:39:00,77.1,64.0,29.81,NW,309,1.0,12.0,64,0.00,,,0.00,432.00,VWS V14.01,2013-05-16 18:39:00,
2013-05-16 14:44:00,77.0,64.8,29.81,NW,314,0.0,6.0,66,0.00,,,0.00,480.00,VWS V14.01,2013-05-16 18:44:00,
2013-05-16 14:49:00,76.9,63.8,29.81,NNW,344,6.0,10.0,64,0.00,,,0.00,434.00,VWS V14.01,2013-05-16 18:49:00,
2013-05-16 14:54:00,77.1,64.4,29.81,WSW,237,8.0,8.0,65,0.00,,,0.00,434.00,VWS V14.01,2013-05-16 18:54:00,
2013-05-16 14:59:00,77.1,64.9,29.80,NW,326,3.0,8.0,66,0.00,,,0.00,448.00,VWS V14.01,2013-05-16 18:59:00,
2013-05-16 15:04:00,76.9,64.2,29.80,NW,313,4.0,8.0,65,0.00,,,0.00,401.00,VWS V14.01,2013-05-16 19:04:00,
2013-05-16 15:10:00,76.8,64.2,29.80,NW,319,1.0,7.0,65,0.00,,,0.00,396.00,VWS V14.01,2013-05-16 19:10:00,
2013-05-16 15:15:00,76.7,64.1,29.80,WSW,257,1.0,8.0,65,0.00,,,0.00,434.00,VWS V14.01,2013-05-16 19:15:00,
2013-05-16 15:20:00,76.8,64.6,29.80,WNW,296,1.0,7.0,66,0.00,,,0.00,700.00,VWS V14.01,2013-05-16 19:20:00,
2013-05-16 15:25:00,77.0,64.8,29.80,SW,225,6.0,10.0,66,0.00,,,0.00,432.00,VWS V14.01,2013-05-16 19:25:00,
2013-05-16 15:30:00,76.8,64.2,29.80,NW,326,1.0,9.0,65,0.00,,,0.00,455.00,VWS V14.01,2013-05-16 19:30:00,
2013-05-16 15:35:00,76.9,64.2,29.79,NW,313,4.0,7.0,65,0.00,,,0.00,621.00,VWS V14.01,2013-05-16 19:35:00,
2013-05-16 15:40:00,77.0,64.3,29.80,NW,318,1.0,12.0,65,0.00,,,0.00,527.00,VWS V14.01,2013-05-16 19:40:00,
2013-05-16 15:45:00,77.1,64.4,29.80,WSW,254,2.0,7.0,65,0.00,,,0.00,364.00,VWS V14.01,2013-05-16 19:45:00,
2013-05-16 15:50:00,76.9,64.7,29.79,NW,315,6.0,8.0,66,0.00,,,0.00,359.00,VWS V14.01,2013-05-16 19:50:00,
2013-05-16 15:55:00,76.8,65.0,29.79,WSW,252,0.0,8.0,67,0.00,,,0.00,473.00,VWS V14.01,2013-05-16 19:55:00,
2013-05-16 16:00:00,77.4,66.0,29.79,WSW,244,3.0,6.0,68,0.00,,,0.00,970.00,VWS V14.01,2013-05-16 20:00:00,
2013-05-16 16:05:00,77.8,65.1,29.78,SSW,211,6.0,6.0,65,0.00,,,0.00,367.00,VWS V14.01,2013-05-16 20:05:00,
2013-05-16 16:11:00,77.7,64.6,29.78,WSW,245,0.0,0.0,64,0.00,,,0.00,490.00,VWS V14.01,2013-05-16 20:11:00,
2013-05-16 16:16:00,77.6,64.0,29.78,NW,320,0.0,2.0,63,0.00,,,0.00,343.00,VWS V14.01,2013-05-16 20:16:00,
2013-05-16 16:21:00,77.9,65.6,29.78,WNW,302,5.0,5.0,66,0.00,,,0.00,814.00,VWS V14.01,2013-05-16 20:21:00,
2013-05-16 16:26:00,78.3,63.8,29.78,WNW,293,0.0,3.0,61,0.00,,,0.00,436.00,VWS V14.01,2013-05-16 20:26:00,
2013-05-16 16:31:00,78.1,63.6,29.77,NW,307,0.0,11.0,61,0.00,,,0.00,236.00,VWS V14.01,2013-05-16 20:31:00,
2013-05-16 16:36:00,77.6,64.0,29.78,NW,319,0.0,1.0,63,0.00,,,0.00,253.00,VWS V14.01,2013-05-16 20:36:00,
2013-05-16 16:41:00,77.3,63.7,29.78,NW,321,8.0,8.0,63,0.00,,,0.00,258.00,VWS V14.01,2013-05-16 20:41:00,
2013-05-16 16:46:00,77.3,63.3,29.78,WNW,286,5.0,6.0,62,0.00,,,0.00,494.00,VWS V14.01,2013-05-16 20:46:00,
2013-05-16 16:51:00,77.4,63.4,29.78,NNW,334,2.0,5.0,62,0.00,,,0.00,234.00,VWS V14.01,2013-05-16 20:51:00,
2013-05-16 16:56:00,77.4,64.3,29.78,WNW,293,0.0,4.0,64,0.00,,,0.00,230.00,VWS V14.01,2013-05-16 20:56:00,
2013-05-16 17:01:00,77.3,62.8,29.78,NW,309,1.0,5.0,61,0.00,,,0.00,248.00,VWS V14.01,2013-05-16 21:01:00,
2013-05-16 17:06:00,77.3,63.7,29.78,WNW,291,1.0,3.0,63,0.00,,,0.00,216.00,VWS V14.01,2013-05-16 21:06:00,
2013-05-16 17:12:00,77.2,63.6,29.79,WNW,295,0.0,1.0,63,0.00,,,0.00,278.00,VWS V14.01,2013-05-16 21:12:00,
2013-05-16 17:17:00,77.4,63.4,29.79,WNW,287,0.0,8.0,62,0.00,,,0.00,236.00,VWS V14.01,2013-05-16 21:17:00,
2013-05-16 17:22:00,77.4,62.9,29.79,ENE,59,1.0,4.0,61,0.00,,,0.00,192.00,VWS V14.01,2013-05-16 21:22:00,
2013-05-16 17:27:00,77.3,63.3,29.79,NW,317,1.0,1.0,62,0.00,,,0.00,151.00,VWS V14.01,2013-05-16 21:27:00,
2013-05-16 17:32:00,77.1,63.1,29.79,West,261,1.0,4.0,62,0.00,,,0.00,149.00,VWS V14.01,2013-05-16 21:32:00,
2013-05-16 17:37:00,77.0,62.5,29.79,WSW,252,0.0,1.0,61,0.00,,,0.00,176.00,VWS V14.01,2013-05-16 21:37:00,
2013-05-16 17:42:00,77.1,63.1,29.79,NW,315,0.0,5.0,62,0.00,,,0.00,434.00,VWS V14.01,2013-05-16 21:42:00,
2013-05-16 17:47:00,77.6,64.0,29.80,WNW,301,0.0,5.0,63,0.00,,,0.00,504.00,VWS V14.01,2013-05-16 21:47:00,
2013-05-16 17:52:00,77.9,63.8,29.80,NNW,339,4.0,8.0,62,0.00,,,0.00,221.00,VWS V14.01,2013-05-16 21:52:00,
2013-05-16 17:57:00,78.2,63.7,29.80,SSW,209,1.0,3.0,61,0.00,,,0.00,439.00,VWS V14.01,2013-05-16 21:57:00,
2013-05-16 18:02:00,78.3,62.8,29.80,West,275,8.0,9.0,59,0.00,,,0.00,418.00,VWS V14.01,2013-05-16 22:02:00,
2013-05-16 18:08:00,78.5,63.5,29.79,NNW,348,2.0,6.0,60,0.00,,,0.00,434.00,VWS V14.01,2013-05-16 22:08:00,
2013-05-16 18:13:00,78.7,63.7,29.79,West,280,1.0,5.0,60,0.00,,,0.00,399.00,VWS V14.01,2013-05-16 22:13:00,
2013-05-16 18:18:00,78.7,63.7,29.79,WNW,286,2.0,5.0,60,0.00,,,0.00,206.00,VWS V14.01,2013-05-16 22:18:00,
2013-05-16 18:23:00,78.3,63.3,29.79,NW,310,1.0,3.0,60,0.00,,,0.00,174.00,VWS V14.01,2013-05-16 22:23:00,
2013-05-16 18:28:00,78.0,63.5,29.79,SSW,207,0.0,4.0,61,0.00,,,0.00,211.00,VWS V14.01,2013-05-16 22:28:00,
2013-05-16 18:33:00,77.7,63.7,29.79,WSW,257,0.0,5.0,62,0.00,,,0.00,290.00,VWS V14.01,2013-05-16 22:33:00,
2013-05-16 18:38:00,77.5,63.5,29.80,NNW,332,2.0,8.0,62,0.00,,,0.00,223.00,VWS V14.01,2013-05-16 22:38:00,
2013-05-16 18:43:00,77.1,63.1,29.80,WSW,240,0.0,6.0,62,0.00,,,0.00,95.00,VWS V14.01,2013-05-16 22:43:00,
2013-05-16 18:48:00,76.9,63.4,29.80,WSW,238,0.0,6.0,63,0.00,,,0.00,165.00,VWS V14.01,2013-05-16 22:48:00,
2013-05-16 18:53:00,76.6,63.5,29.80,WSW,253,0.0,5.0,64,0.00,,,0.00,105.00,VWS V14.01,2013-05-16 22:53:00,
2013-05-16 18:58:00,76.3,63.2,29.80,West,259,5.0,11.0,64,0.00,,,0.00,167.00,VWS V14.01,2013-05-16 22:58:00,
2013-05-16 19:03:00,76.3,63.2,29.80,West,273,1.0,5.0,64,0.00,,,0.00,148.00,VWS V14.01,2013-05-16 23:03:00,
2013-05-16 19:09:00,76.3,63.2,29.80,West,259,4.0,7.0,64,0.00,,,0.00,86.00,VWS V14.01,2013-05-16 23:09:00,
2013-05-16 19:14:00,76.1,63.0,29.81,WSW,246,0.0,4.0,64,0.00,,,0.00,72.00,VWS V14.01,2013-05-16 23:14:00,
2013-05-16 19:19:00,75.9,62.9,29.81,West,271,0.0,8.0,64,0.00,,,0.00,69.00,VWS V14.01,2013-05-16 23:19:00,
2013-05-16 19:24:00,75.6,62.1,29.81,SW,215,2.0,5.0,63,0.00,,,0.00,86.00,VWS V14.01,2013-05-16 23:24:00,
2013-05-16 19:29:00,75.4,61.9,29.81,NW,321,0.0,8.0,63,0.00,,,0.00,88.00,VWS V14.01,2013-05-16 23:29:00,
2013-05-16 19:34:00,75.3,61.8,29.81,SW,221,3.0,5.0,63,0.00,,,0.00,91.00,VWS V14.01,2013-05-16 23:34:00,
2013-05-16 19:39:00,75.2,61.8,29.82,SW,219,1.0,6.0,63,0.00,,,0.00,91.00,VWS V14.01,2013-05-16 23:39:00,
2013-05-16 19:44:00,75.2,61.8,29.82,WNW,302,0.0,3.0,63,0.00,,,0.00,74.00,VWS V14.01,2013-05-16 23:44:00,
2013-05-16 19:49:00,75.1,61.7,29.82,WSW,246,0.0,5.0,63,0.00,,,0.00,60.00,VWS V14.01,2013-05-16 23:49:00,
2013-05-16 19:54:00,74.9,61.5,29.82,SW,223,0.0,3.0,63,0.00,,,0.00,42.00,VWS V14.01,2013-05-16 23:54:00,
2013-05-16 19:59:00,74.7,61.7,29.82,WNW,285,0.0,3.0,64,0.00,,,0.00,26.00,VWS V14.01,2013-05-16 23:59:00,
2013-05-16 20:05:00,74.3,61.3,29.83,SW,232,0.0,3.0,64,0.00,,,0.00,18.00,VWS V14.01,2013-05-17 00:05:00,
2013-05-16 20:10:00,73.9,61.4,29.83,WSW,244,0.0,2.0,65,0.00,,,0.00,12.00,VWS V14.01,2013-05-17 00:10:00,
2013-05-16 20:15:00,73.5,61.0,29.83,WNW,290,0.0,1.0,65,0.00,,,0.00,7.00,VWS V14.01,2013-05-17 00:15:00,
2013-05-16 20:20:00,73.1,60.7,29.83,WSW,254,0.0,4.0,65,0.00,,,0.00,5.00,VWS V14.01,2013-05-17 00:20:00,
2013-05-16 20:25:00,72.8,60.4,29.83,NW,319,0.0,3.0,65,0.00,,,0.00,0.00,VWS V14.01,2013-05-17 00:25:00,
2013-05-16 20:30:00,72.6,60.2,29.83,WNW,286,0.0,2.0,65,0.00,,,0.00,0.00,VWS V14.01,2013-05-17 00:30:00,
2013-05-16 20:35:00,72.3,59.9,29.83,SW,218,2.0,7.0,65,0.00,,,0.00,0.00,VWS V14.01,2013-05-17 00:35:00,
2013-05-16 20:40:00,72.1,59.7,29.84,West,273,0.0,5.0,65,0.00,,,0.00,0.00,VWS V14.01,2013-05-17 00:40:00,
2013-05-16 20:45:00,71.9,59.5,29.84,South,184,0.0,5.0,65,0.00,,,0.00,0.00,VWS V14.01,2013-05-17 00:45:00,
2013-05-16 20:50:00,71.7,59.8,29.85,WNW,287,0.0,7.0,66,0.00,,,0.00,0.00,VWS V14.01,2013-05-17 00:50:00,
2013-05-16 20:55:00,71.5,59.6,29.85,WNW,296,0.0,3.0,66,0.00,,,0.00,0.00,VWS V14.01,2013-05-17 00:55:00,
2013-05-16 21:00:00,71.3,59.4,29.85,SW,215,0.0,4.0,66,0.00,,,0.00,0.00,VWS V14.01,2013-05-17 01:00:00,
2013-05-16 21:05:00,71.1,59.6,29.85,SW,215,0.0,3.0,67,0.00,,,0.00,0.00,VWS V14.01,2013-05-17 01:05:00,
2013-05-16 21:10:00,70.8,59.3,29.86,SW,230,0.0,3.0,67,0.00,,,0.00,0.00,VWS V14.01,2013-05-17 01:10:00,
2013-05-16 21:15:00,70.7,59.2,29.86,SW,219,1.0,4.0,67,0.00,,,0.00,0.00,VWS V14.01,2013-05-17 01:15:00,
2013-05-16 21:20:00,70.4,58.9,29.86,SW,215,0.0,3.0,67,0.00,,,0.00,0.00,VWS V14.01,2013-05-17 01:20:00,
2013-05-16 21:25:00,70.3,59.2,29.86,SW,215,0.0,2.0,68,0.00,,,0.00,0.00,VWS V14.01,2013-05-17 01:25:00,
2013-05-16 21:30:00,70.1,59.1,29.87,SW,214,0.0,3.0,68,0.00,,,0.00,0.00,VWS V14.01,2013-05-17 01:30:00,
2013-05-16 21:35:00,69.8,58.8,29.87,SSW,213,0.0,1.0,68,0.00,,,0.00,0.00,VWS V14.01,2013-05-17 01:35:00,
2013-05-16 21:40:00,69.7,58.7,29.87,SW,218,0.0,1.0,68,0.00,,,0.00,0.00,VWS V14.01,2013-05-17 01:40:00,
2013-05-16 21:45:00,69.5,58.9,29.87,SW,218,0.0,0.0,69,0.00,,,0.00,0.00,VWS V14.01,2013-05-17 01:45:00,
2013-05-16 21:50:00,69.3,58.7,29.87,West,269,0.0,1.0,69,0.00,,,0.00,0.00,VWS V14.01,2013-05-17 01:50:00,
2013-05-16 21:55:00,69.2,59.0,29.88,West,273,0.0,0.0,70,0.00,,,0.00,0.00,VWS V14.01,2013-05-17 01:55:00,
2013-05-16 22:00:00,69.0,58.8,29.88,West,272,0.0,1.0,70,0.00,,,0.00,0.00,VWS V14.01,2013-05-17 02:00:00,
2013-05-16 22:05:00,68.8,58.6,29.88,West,265,0.0,0.0,70,0.00,,,0.00,0.00,VWS V14.01,2013-05-17 02:05:00,
2013-05-16 22:10:00,68.6,58.8,29.88,West,265,0.0,0.0,71,0.00,,,0.00,0.00,VWS V14.01,2013-05-17 02:10:00,
2013-05-16 22:15:00,68.5,58.7,29.89,West,265,0.0,0.0,71,0.00,,,0.00,0.00,VWS V14.01,2013-05-17 02:15:00,
2013-05-16 22:21:00,68.3,58.5,29.89,West,265,0.0,0.0,71,0.00,,,0.00,0.00,VWS V14.01,2013-05-17 02:21:00,
2013-05-16 22:26:00,68.2,58.8,29.89,West,264,0.0,0.0,72,0.00,,,0.00,0.00,VWS V14.01,2013-05-17 02:26:00,
2013-05-16 22:31:00,68.0,58.7,29.88,West,265,0.0,0.0,72,0.00,,,0.00,0.00,VWS V14.01,2013-05-17 02:31:00,
2013-05-16 22:36:00,67.8,58.8,29.89,West,265,0.0,0.0,73,0.00,,,0.00,0.00,VWS V14.01,2013-05-17 02:36:00,
2013-05-16 22:41:00,67.6,58.7,29.89,West,265,0.0,0.0,73,0.00,,,0.00,0.00,VWS V14.01,2013-05-17 02:41:00,
2013-05-16 22:46:00,67.2,58.6,29.89,West,264,0.0,0.0,74,0.00,,,0.00,0.00,VWS V14.01,2013-05-17 02:46:00,
2013-05-16 22:51:00,66.9,58.3,29.89,West,265,0.0,0.0,74,0.00,,,0.00,0.00,VWS V14.01,2013-05-17 02:51:00,
2013-05-16 22:56:00,66.5,58.3,29.89,West,265,0.0,0.0,75,0.00,,,0.00,0.00,VWS V14.01,2013-05-17 02:56:00,
2013-05-16 23:01:00,66.2,58.0,29.89,West,265,0.0,0.0,75,0.00,,,0.00,0.00,VWS V14.01,2013-05-17 03:01:00,
2013-05-16 23:06:00,65.8,58.0,29.89,West,264,0.0,1.0,76,0.00,,,0.00,0.00,VWS V14.01,2013-05-17 03:06:00,
2013-05-16 23:11:00,65.5,58.1,29.89,West,264,0.0,0.0,77,0.00,,,0.00,0.00,VWS V14.01,2013-05-17 03:11:00,
2013-05-16 23:16:00,65.3,57.9,29.89,West,265,0.0,0.0,77,0.00,,,0.00,0.00,VWS V14.01,2013-05-17 03:16:00,
2013-05-16 23:21:00,65.0,58.0,29.90,West,265,0.0,0.0,78,0.00,,,0.00,0.00,VWS V14.01,2013-05-17 03:21:00,
2013-05-16 23:27:00,64.8,57.8,29.90,West,264,0.0,0.0,78,0.00,,,0.00,0.00,VWS V14.01,2013-05-17 03:27:00,
2013-05-16 23:32:00,64.6,58.0,29.90,West,264,0.0,0.0,79,0.00,,,0.00,0.00,VWS V14.01,2013-05-17 03:32:00,
2013-05-16 23:37:00,64.4,57.8,29.90,West,265,0.0,0.0,79,0.00,,,0.00,0.00,VWS V14.01,2013-05-17 03:37:00,
2013-05-16 23:42:00,64.2,57.9,29.90,West,265,0.0,0.0,80,0.00,,,0.00,0.00,VWS V14.01,2013-05-17 03:42:00,
2013-05-16 23:47:00,64.0,57.7,29.90,West,265,0.0,0.0,80,0.00,,,0.00,0.00,VWS V14.01,2013-05-17 03:47:00,
2013-05-16 23:52:00,63.8,57.9,29.91,West,265,0.0,1.0,81,0.00,,,0.00,0.00,VWS V14.01,2013-05-17 03:52:00,
2013-05-16 23:57:00,63.7,57.8,29.91,West,265,0.0,1.0,81,0.00,,,0.00,0.00,VWS V14.01,2013-05-17 03:57:00,